User: anonymous   Login
Location: Cisewo
(53.3833°N, 14.9000°E)
Time: 01:23:44
(UTC+00:00)
Language:

Cosmos 2151 - Orbit

View from above orbital plane
View from above orbital plane
View from above satellite
View from above satellite

Ground track
Ground track

The orbit data is extracted from the following two-line orbital elements,

1 21422U 91042A   21174.41866402  .00000203  00000-0  17278-4 0  9997
2 21422  82.5008 289.7224 0015663  75.6689 284.6268 14.92265327606157
Epoch (UTC): 23 June 2021 10:02:52
Eccentricity: 0.0015663
inclination: 82.5008°
perigee height: 580 km
apogee height: 602 km
right ascension of ascending node: 289.7224°
argument of perigee: 75.6689°
revolutions per day: 14.92265327
mean anomaly at epoch: 284.6268°
orbit number at epoch: 60615

The dashed part of the orbit path shows where the satellite is in the earth's shadow,  

DLR